Location: Baumgartsau
(48.4586°N, 14.0864°E)
Time: 17:16:26
(UTC+00:00)

BREEZE M DEB (TANK) - Pass Details

Date: 15 May 2021
Orbit: 296 x 11843 km, 49.5° (Epoch: 14 June)

Event Time Altitude Azimuth Distance (km) Brightness Sun altitude
Rises 18:28:27 0° 287° (WNW) 4,577 9.2 0.5°
Reaches altitude 10° 18:30:22 10° 286° (WNW) 4,080 8.6 0.2°
Maximum altitude 18:42:33 84° 201° (SSW) 3,897 6.6 -1.5°
Drops below altitude 10° 19:46:06 10° 127° (SE) 15,369 8.9 -9.8°
Enters shadow 19:47:46 - 127° (SE) 15,543 9.0 -10.0°
